Weather History for Eureka Airport, NV

Change the Weather History Date:

Sunday, September 30, 2012

  Actual Average Record
Temperature  
Mean Temperature 60 °F -  
Max Temperature 80 °F - - ()
Min Temperature 41 °F - - ()
Degree Days  
Heating Degree Days 4    
Growing Degree Days 10 (Base 50)    
Moisture  
Dew Point -    
Average Humidity    
Maximum Humidity    
Minimum Humidity    
Precipitation  
Precipitation 0.00 in - - ()
Sea Level Pressure  
Sea Level Pressure 30.39 in    
Wind  
Wind Speed 6 mph ()    
Max Wind Speed 14 mph    
Max Gust Speed 17 mph    
Visibility 10.0 miles    
Events      
T = Trace of Precipitation, MM = Missing Value Source: Averaged Metar Reports

Daily Weather History Graph

Daily Weather History Graph

Search for Another Location

Airport:

Trip Planner

Search our weather history database for the weather conditions in past years. The results will help you decide how hot, cold, wet, or windy it might be!

Date:

Astronomy

Sep. 30, 2012 Rise Set
Actual Time 6:39 AM PDT 6:27 PM PDT
Civil Twilight 6:12 AM PDT 6:53 PM PDT
Nautical Twilight 5:41 AM PDT 7:25 PM PDT
Astronomical Twilight 5:10 AM PDT 7:56 PM PDT
Moon 6:33 PM PDT (9/30) 7:14 AM PDT (9/30)
Length of Visible Light 12h 41m
Length of Day
11h 47m
Full, 100% of the Moon is Illuminated
Sep 30
Full
Oct 8
Last Quarter
Oct 15
New
Oct 21
First Quarter
Oct 29
Full

Hourly Weather History & Observations

Time (PDT) Temp. Windchill Dew Point Humidity Pressure Visibility Wind Dir Wind Speed Gust Speed Precip Events Conditions
12:15 AM 46.4 °F 42.4 °F - N/A% 30.36 in 10.0 mi South 8.1 mph - N/A   Clear
12:35 AM 48.2 °F - - N/A% 30.36 in 10.0 mi South 8.1 mph - N/A   Clear
12:55 AM 48.2 °F - - N/A% 30.36 in 10.0 mi South 8.1 mph - N/A   Clear
1:15 AM 48.2 °F - - N/A% 30.37 in 10.0 mi South 8.1 mph - N/A   Clear
1:35 AM 48.2 °F - - N/A% 30.37 in 10.0 mi South 6.9 mph - N/A   Clear
1:55 AM 48.2 °F - - N/A% 30.37 in 10.0 mi South 8.1 mph - N/A   Clear
2:15 AM 46.4 °F 42.9 °F - N/A% 30.37 in 10.0 mi South 6.9 mph - N/A   Clear
2:35 AM 48.2 °F - - N/A% 30.37 in 10.0 mi South 10.4 mph - N/A   Clear
2:55 AM 48.2 °F - - N/A% 30.36 in 10.0 mi SSW 11.5 mph - N/A   Clear
3:15 AM 50.0 °F - - N/A% 30.37 in 10.0 mi SSW 9.2 mph - N/A   Clear
3:35 AM 48.2 °F - - N/A% 30.37 in 10.0 mi SSW 9.2 mph - N/A   Clear
3:55 AM 48.2 °F - - N/A% 30.36 in 10.0 mi SSW 10.4 mph - N/A   Clear
4:15 AM 46.4 °F 41.9 °F - N/A% 30.37 in 10.0 mi SSW 9.2 mph - N/A   Clear
4:35 AM 44.6 °F 41.4 °F - N/A% 30.37 in 10.0 mi SW 5.8 mph - N/A   Clear
4:55 AM 44.6 °F 40.2 °F - N/A% 30.38 in 10.0 mi SW 8.1 mph - N/A   Clear
5:15 AM 44.6 °F 40.7 °F - N/A% 30.38 in 10.0 mi WSW 6.9 mph - N/A   Clear
5:35 AM 42.8 °F - - N/A% 30.39 in 10.0 mi Calm Calm - N/A   Clear
5:55 AM 41.0 °F 36.4 °F - N/A% 30.39 in 10.0 mi SSW 6.9 mph - N/A   Clear
6:15 AM 41.0 °F 36.4 °F - N/A% 30.39 in 10.0 mi SSW 6.9 mph - N/A   Clear
6:35 AM 41.0 °F 37.1 °F - N/A% 30.40 in 10.0 mi South 5.8 mph - N/A   Clear
6:55 AM 41.0 °F 35.8 °F - N/A% 30.41 in 10.0 mi South 8.1 mph - N/A   Clear
7:15 AM 42.8 °F 39.3 °F - N/A% 30.41 in 10.0 mi South 5.8 mph - N/A   Clear
7:35 AM 46.4 °F 45.2 °F - N/A% 30.42 in 10.0 mi SSW 3.5 mph - N/A   Clear
7:55 AM 50.0 °F - - N/A% 30.42 in 10.0 mi Calm Calm - N/A   Clear
8:15 AM 53.6 °F - - N/A% 30.42 in 10.0 mi SSW 8.1 mph - N/A   Clear
8:35 AM 55.4 °F - - N/A% 30.43 in 10.0 mi Calm Calm - N/A   Clear
8:55 AM 59.0 °F - - N/A% 30.43 in 10.0 mi Calm Calm - N/A   Clear
9:35 AM 64.4 °F - - N/A% 30.43 in 10.0 mi SSW 4.6 mph - N/A   Clear
9:55 AM 66.2 °F - - N/A% 30.44 in 10.0 mi SSW 3.5 mph - N/A   Clear
10:15 AM 69.8 °F - - N/A% 30.44 in 10.0 mi Calm Calm - N/A   Clear
10:35 AM 71.6 °F - - N/A% 30.44 in 10.0 mi Calm Calm - N/A   Clear
10:55 AM 73.4 °F - - N/A% 30.43 in 10.0 mi Calm Calm - N/A   Clear
11:15 AM 73.4 °F - - N/A% 30.43 in 10.0 mi Calm Calm - N/A   Unknown
11:35 AM 75.2 °F - - N/A% 30.42 in 10.0 mi ENE 5.8 mph - N/A   Clear
11:55 AM 75.2 °F - - N/A% 30.42 in 10.0 mi Calm Calm - N/A   Clear
12:15 PM 75.2 °F - - N/A% 30.42 in 10.0 mi NE 5.8 mph - N/A   Clear
12:35 PM 77.0 °F - - N/A% 30.42 in 10.0 mi North 3.5 mph - N/A   Clear
1:10 PM 78.8 °F - - N/A% 30.40 in 10.0 mi NE 5.8 mph - N/A   Clear
1:35 PM 80.6 °F - - N/A% 30.39 in 10.0 mi North 13.8 mph - N/A   Clear
1:55 PM 80.6 °F - - N/A% 30.39 in 10.0 mi NE 5.8 mph - N/A   Clear
2:15 PM 80.6 °F - - N/A% 30.38 in 10.0 mi NNE 6.9 mph - N/A   Clear
2:35 PM 80.6 °F - - N/A% 30.38 in 10.0 mi North 5.8 mph - N/A   Clear
2:55 PM 80.6 °F - - N/A% 30.37 in 10.0 mi NE 8.1 mph 17.3 mph N/A   Clear
3:15 PM 80.6 °F - - N/A% 30.37 in 10.0 mi NE 11.5 mph - N/A   Clear
3:35 PM 80.6 °F - - N/A% 30.37 in 10.0 mi NNE 10.4 mph - N/A   Clear
3:55 PM 80.6 °F - - N/A% 30.36 in 10.0 mi North 9.2 mph - N/A   Clear
4:15 PM 80.6 °F - - N/A% 30.36 in 10.0 mi NE 8.1 mph - N/A   Clear
4:35 PM 80.6 °F - - N/A% 30.36 in 10.0 mi NNE 10.4 mph - N/A   Clear
5:15 PM 77.0 °F - - N/A% 30.36 in 10.0 mi NNE 10.4 mph - N/A   Clear
5:35 PM 77.0 °F - - N/A% 30.36 in 10.0 mi NNE 9.2 mph - N/A   Clear
5:55 PM 75.2 °F - - N/A% 30.36 in 10.0 mi NE 6.9 mph - N/A   Clear
6:15 PM 71.6 °F - - N/A% 30.36 in 10.0 mi NNE 3.5 mph - N/A   Clear
6:35 PM 66.2 °F - - N/A% 30.36 in 10.0 mi NE 4.6 mph - N/A   Clear
7:15 PM 59.0 °F - - N/A% 30.37 in 10.0 mi Calm Calm - N/A   Clear
7:35 PM 57.2 °F - - N/A% 30.38 in 10.0 mi South 3.5 mph - N/A   Clear
7:55 PM 57.2 °F - - N/A% 30.38 in 10.0 mi South 3.5 mph - N/A   Clear
8:15 PM 53.6 °F - - N/A% 30.39 in 10.0 mi South 4.6 mph - N/A   Clear
8:35 PM 53.6 °F - - N/A% 30.39 in 10.0 mi SSE 5.8 mph - N/A   Clear
8:55 PM 50.0 °F - - N/A% 30.40 in 10.0 mi SSW 4.6 mph - N/A   Clear
9:15 PM 50.0 °F - - N/A% 30.40 in 10.0 mi South 6.9 mph - N/A   Clear
9:35 PM 51.8 °F - - N/A% 30.40 in 10.0 mi South 6.9 mph - N/A   Clear
9:55 PM 50.0 °F - - N/A% 30.40 in 10.0 mi South 8.1 mph - N/A   Clear
10:15 PM 50.0 °F - - N/A% 30.40 in 10.0 mi South 5.8 mph - N/A   Clear
10:35 PM 48.2 °F - - N/A% 30.40 in 10.0 mi SSW 4.6 mph - N/A   Clear
11:15 PM 46.4 °F 43.5 °F - N/A% 30.40 in 10.0 mi SSE 5.8 mph - N/A   Clear
11:35 PM 48.2 °F - - N/A% 30.40 in 10.0 mi SSE 3.5 mph - N/A   Clear
11:55 PM 46.4 °F 43.5 °F - N/A% 30.40 in 10.0 mi South 5.8 mph - N/A   Clear